Content
SEND FEEDBACK

Daily
Averages
Monthly
Summary
Switzerland

GENEVA, SWITZERLAND


Home > Europe > Switzerland
Elevation: 1364 feet     Latitude: 46 15N     Longitude: 006 08E

WEATHER
 
SELECT A DAY
Number of Records: 305,936;   Date Range: 7/1/96 - 8/28/14
 
SHARE

PRINT THIS DATA

[ ← Previous Day ]
WEATHER ALMANAC - JULY 6, 2013
[ Next Day → ]
[ °C ]   °F
Weather ElementAverageHighLow
Temperature69.4 °F80.6 °F (4:50 pm)56 °F (6:00 am)
Dewpoint57.9 °F60.8 °F (9:20 am)54 °F (6:00 am)
Humidity67 %94 % (2:20 am)36 % (6:00 pm)
Barometer30.26 in30.30 in (12:20 am)30.17 in (6:00 pm)
Wind Speed5.2 mph11.5 mph (1:00 pm)
Weather ElementAverage
Visibility7.3 mi
Wind DirectionENE (56.2 °)

Weather ElementTotal
Precipitation---
Cooling Degree Days3.3 (Base 65)
Growing Degree Days18.3 (Base 50)
Averaged from 66 records on July 6, 2013
WEATHER CONDITIONS BREAKOUT
WIND DIRECTION BREAKOUT
WEATHER BY HOUR - JULY 6, 2013
[ °C ]   °F
Local TimeTemperatureDewpointHumidityBarometerVisibilityWind DirectionWind SpeedGust SpeedPrecipitationEventsConditions
12:20 AM62.6 °F55.4 °F77 %30.30 inCalmClear
12:50 AM60.8 °F57.2 °F88 %30.30 inVariable1.2 mphClear
1:00 AM61.0 °F56.0 °F77 %30.30 inSW (230°)2.3 mph
1:20 AM60.8 °F57.2 °F88 %30.30 inVariable1.2 mphClear
1:50 AM60.8 °F57.2 °F88 %30.30 inVariable1.2 mphClear
2:00 AM60.0 °F56.0 °F81 %30.30 in22.0 miWest (280°)2.3 mphClear
2:20 AM59.0 °F57.2 °F94 %30.30 inCalmClear
2:50 AM59.0 °F55.4 °F88 %30.30 inVariable1.2 mphClear
3:00 AM59.0 °F55.0 °F83 %30.29 inWest (260°)2.3 mph
3:50 AM59.0 °F55.4 °F88 %30.30 inVariable2.3 mphClear
4:00 AM58.0 °F55.0 °F88 %30.29 inWest (260°)1.2 mph
4:20 AM57.2 °F55.4 °F94 %30.27 inCalmClear
4:50 AM57.2 °F55.4 °F94 %30.27 inCalmClear
5:20 AM57.2 °F55.4 °F94 %30.30 inCalmClear
5:50 AM57.2 °F55.4 °F94 %30.27 inCalmClear
6:00 AM56.0 °F54.0 °F89 %30.29 inWest (260°)1.2 mph
6:20 AM57.2 °F55.4 °F94 %30.30 in6.2 miCalmScattered Clouds
6:50 AM57.2 °F55.4 °F94 %30.30 in6.2 miCalmScattered Clouds
7:00 AM58.0 °F55.0 °F86 %30.29 inNW (310°)1.2 mph
7:20 AM62.6 °F57.2 °F82 %30.30 in6.2 miCalmPartly Cloudy
7:50 AM64.4 °F59.0 °F83 %30.30 in6.2 miCalmPartly Cloudy
8:00 AM64.0 °F58.0 °F76 %30.27 in11.0 miCalmScattered Clouds
8:20 AM68.0 °F59.0 °F73 %30.30 in6.2 miVariable2.3 mphPartly Cloudy
8:50 AM66.2 °F59.0 °F78 %30.30 in6.2 miVariable1.2 mphScattered Clouds
9:00 AM66.0 °F59.0 °F72 %30.27 inNNE (20°)3.5 mph
9:20 AM68.0 °F60.8 °F78 %30.30 in6.2 miNE (50°)6.9 mphScattered Clouds
9:50 AM68.0 °F60.8 °F78 %30.30 in6.2 miNE (40°)8.1 mphPartly Cloudy
10:00 AM68.0 °F59.0 °F64 %30.26 inNNE (30°)9.2 mph
10:20 AM69.8 °F59.0 °F68 %30.30 in6.2 miNE (50°)8.1 mphPartly Cloudy
10:50 AM71.6 °F59.0 °F64 %30.27 in6.2 miNNE (30°)9.2 mphScattered Clouds
11:20 AM71.6 °F60.8 °F69 %30.27 in6.2 miENE (60°)10.4 mphPartly Cloudy
11:50 AM73.4 °F60.8 °F65 %30.27 in6.2 miNE (40°)10.4 mphPartly Cloudy
12:00 PM73.0 °F60.0 °F54 %30.23 inNE (40°)10.4 mph
12:20 PM73.4 °F60.8 °F65 %30.27 in6.2 miNE (40°)10.4 mphPartly Cloudy
12:50 PM73.4 °F60.8 °F65 %30.27 in6.2 miNNE (30°)10.4 mphPartly Cloudy
1:00 PM75.0 °F60.0 °F50 %30.22 inNE (50°)11.5 mph
1:20 PM75.2 °F60.8 °F61 %30.27 in6.2 miNE (40°)10.4 mphPartly Cloudy
1:50 PM77.0 °F60.8 °F57 %30.27 in6.2 miNE (50°)10.4 mphPartly Cloudy
2:00 PM75.0 °F58.0 °F46 %30.21 in16.0 miNE (40°)9.2 mphScattered Clouds
2:20 PM78.8 °F60.8 °F54 %30.24 in6.2 miNE (50°)10.4 mphScattered Clouds
2:50 PM78.8 °F59.0 °F51 %30.24 in6.2 miNE (50°)10.4 mphScattered Clouds
3:00 PM76.0 °F59.0 °F45 %30.20 inNE (40°)10.4 mph
3:20 PM78.8 °F59.0 °F51 %30.24 in6.2 miNE (40°)10.4 mphPartly Cloudy
3:50 PM78.8 °F59.0 °F51 %30.24 in6.2 miNE (40°)9.2 mphPartly Cloudy
4:00 PM80.0 °F60.0 °F39 %30.18 inNE (40°)10.4 mph
4:20 PM78.8 °F59.0 °F51 %30.24 in6.2 miNE (50°)8.1 mphPartly Cloudy
4:50 PM80.6 °F59.0 °F48 %30.24 in6.2 miNE (50°)10.4 mphPartly Cloudy
5:20 PM80.6 °F59.0 °F48 %30.24 in6.2 miNE (50°)10.4 mphPartly Cloudy
5:50 PM80.6 °F59.0 °F48 %30.24 in6.2 miNE (40°)10.4 mphPartly Cloudy
6:00 PM79.0 °F57.0 °F36 %30.17 inNNE (30°)10.4 mph
6:20 PM80.6 °F59.0 °F48 %30.24 in6.2 miNE (40°)9.2 mphPartly Cloudy
6:50 PM78.8 °F57.2 °F47 %30.21 in6.2 miNE (40°)10.4 mphPartly Cloudy
7:00 PM78.0 °F57.0 °F38 %30.17 inNE (40°)9.2 mph
7:20 PM78.8 °F57.2 °F47 %30.21 in6.2 miNE (40°)8.1 mphPartly Cloudy
7:50 PM78.8 °F59.0 °F51 %30.21 in6.2 miNNE (30°)4.6 mphPartly Cloudy
8:00 PM78.0 °F56.0 °F37 %30.17 in16.0 miNNE (30°)6.9 mphScattered Clouds
8:20 PM78.8 °F59.0 °F51 %30.24 in6.2 miNNE (20°)3.5 mphPartly Cloudy
8:50 PM77.0 °F59.0 °F54 %30.21 in6.2 miVariable3.5 mphPartly Cloudy
9:00 PM74.0 °F58.0 °F47 %30.17 inNorth (350°)3.5 mph
9:20 PM73.4 °F59.0 °F61 %30.21 in6.2 miVariable3.5 mphPartly Cloudy
9:50 PM71.6 °F57.2 °F60 %30.24 in6.2 miNorth (360°)3.5 mphPartly Cloudy
10:00 PM70.0 °F55.0 °F50 %30.20 inNorth (10°)4.6 mph
10:20 PM69.8 °F57.2 °F64 %30.24 in6.2 miVariable2.3 mphPartly Cloudy
10:50 PM68.0 °F57.2 °F68 %30.24 in6.2 miCalmPartly Cloudy
11:20 PM66.2 °F59.0 °F78 %30.24 inCalmClear
11:50 PM66.2 °F57.2 °F73 %30.24 inCalmClear
Hourly data recorded from LSGG, located miles away from Geneva, Switzerland







STORIES FROM OUR PARTNERS